Regional Weather Roundup
Issued by NWS Upton, NY

Current Version | Previous Version | Text Only | Print | Product List | Glossary On
Versions: 1 2 3 4 5 6 7 8 9 10 11 12 13 14 15 16 17 18 19 20 21 22 23 24 25 26 27 28 29 30 31 32 33 34 35 36 37 38 39 40 41 42 43 44 45 46 47 48 49 50
000 ASUS41 KOKX 290308 RWROKX REGIONAL WEATHER ROUNDUP NATIONAL WEATHER SERVICE NEW YORK NY 1100 PM EDT THU MAY 28 2015 NOTE: "FAIR" INDICATES FEW OR NO CLOUDS BELOW 12,000 FEET WITH NO SIGNIFICANT WEATHER AND/OR OBSTRUCTIONS TO VISIBILITY. NYZ071-072-176-178-NJZ106-104-290400- NEW YORK CITY METRO AREA CITY SKY/WX TMP DP RH WIND PRES REMARKS CENTRAL PARK PTCLDY 76 53 44 VRB3 30.25R LAGUARDIA APRT MOCLDY 75 54 47 N12 30.21R KENNEDY INTL MOCLDY 67 58 72 CALM 30.22R NEWARK/LIBERTY MOCLDY 76 54 46 N13 30.22R BRNX BOT. GARD N/A 72 55 56 NE3 30.24R TETERBORO PTCLDY 75 53 46 N8 30.21R $$ NYZ177-179-078>081-290400- LONG ISLAND NEW YORK CITY SKY/WX TMP DP RH WIND PRES REMARKS FARMINGDALE MOCLDY 65 61 87 N3 30.22R ISLIP MOCLDY 64 61 90 NW3 30.21R SHIRLEY MOCLDY 65 63 93 CALM 30.22R WESTHAMPTON CLOUDY 64 62 93 CALM 30.23R MONTAUK POINT N/A 65 62 90 SW3 30.23R $$ NYZ052-065-067-290400- HUDSON VALLEY CITY SKY/WX TMP DP RH WIND PRES REMARKS WHITE PLAINS PTCLDY 70 56 61 N9 30.23R NEWBURGH CLEAR 66 55 68 N7 30.27R MONTGOMERY CLEAR 61 55 81 CALM 30.25R POUGHKEEPSIE CLEAR 68 54 60 N3 30.25R ALBANY PTCLDY 63 53 70 W6 30.27R $$ NJZ001-105-106-008-010-013-015-019>022-104-290400- NEW JERSEY CITY SKY/WX TMP DP RH WIND PRES REMARKS NEWARK/LIBERTY MOCLDY 76 54 46 N13 30.22R TETERBORO PTCLDY 75 53 46 N8 30.21R CALDWELL PTCLDY 72 53 51 E5 30.23R MORRISTOWN PTCLDY 75 52 43 CALM 30.23R SOMERVILLE PTCLDY 68 54 60 CALM 30.21R SUSSEX PTCLDY 64 54 69 NE3 30.28R ANDOVER N/A 64 55 72 CALM 30.26R TRENTON MOCLDY 73 54 51 CALM 30.22R MILLVILLE CLOUDY 68 67 96 CALM 30.21R ATLANTIC CITY CLOUDY 69 64 84 S5 30.21R WRIGHTSTOWN CLOUDY 70 69 95 NE2 30.20R TOMS RIVER CLOUDY N/A N/A N/A N3 30.22R BELMAR CLOUDY 72 63 73 W5 30.22R $$ PAZ047>061-062-071-290400- EASTERN PENNSYLVANIA CITY SKY/WX TMP DP RH WIND PRES REMARKS PHILADELPHIA MOCLDY 78 65 63 E10 30.22R ALLENTOWN PTCLDY 69 51 52 N5 30.25R SCRANTON CLEAR 67 53 61 NE5 30.28S $$ CTZ002-004>006-009-010-012-RIZ004-006-007-MAZ004-011-015-290400- SOUTHERN NEW ENGLAND IN CT CITY SKY/WX TMP DP RH WIND PRES REMARKS BRADLEY INTL PTCLDY 64 55 72 NW6 30.23R HARTFORD PTCLDY 69 53 56 NW7 30.23R DANBURY PTCLDY 67 53 61 N9 30.26R WTRBRY/OXFORD CLEAR 64 52 63 N9 30.26R BRIDGEPORT MOCLDY 70 59 68 N9 30.22R MERIDEN PTCLDY 70 54 56 N8 30.24R NEW HAVEN MOCLDY 70 55 59 N12 30.22R CHESTER FAIR 70 55 60 N10G16 30.23R GROTON MOCLDY 63 60 90 CALM 30.20R WILLIMANTIC PTCLDY 68 55 63 N5 30.23R IN RI CITY SKY/WX TMP DP RH WIND PRES REMARKS PROVIDENCE MOCLDY 66 63 90 E5 30.21R BLOCK ISLAND CLOUDY 61 55 82 W15 30.22R WESTERLY MOCLDY 61 59 93 CALM 30.21S IN MA CITY SKY/WX TMP DP RH WIND PRES REMARKS BOSTON PTCLDY 71 56 58 NW9 30.20R WORCESTER CLEAR 61 53 75 W6 30.24S WESTFIELD CLEAR 62 54 74 CALM 30.23R PROVINCETOWN MOCLDY 59 55 88 SW9 30.20R NANTUCKET FAIR 60 57 89 SW7 30.23R $$ ANZ330-335-338-340-345-350-353-355-290400- COASTAL MARINE OBSERVATIONS STATION/POSITION TIME SKY/WX TEMP WIND PRES VSBY WAVE AIR SEA DIR/SP/G HT/PER (UTC) (F) (DEG/KT/KT) (MB) (MI) (FT/S) NY HARB ENTRANCE 0250 61 58 220/ 8/ 10 1022.6 3/ 6 4S FIRE IS 0203 58 N/A 4/ 6 20S FIRE ISLAND 0250 61 57 240/ 12/ 14 1022.7 4/ 5 GREAT SOUTH BAY 0215 65 68 250/ 12/ 14 N/A 23SW MTP 0250 57 54 200/ 8/ 8 1023.0 4/ 6 HUDSON CANYON NOT AVBL KINGS POINT 0200 69 57 160/ 2/ 2 1021.8 CENTRAL LI SOUND 0230 64 60 270/ 4/ 6 N/A EASTERN LI SOUND 0200 58 CALM / 4 N/A ROBBINS REEF 0200 78 340/ 10/ 12 1021.4 $$ >>>>>>>>>>>>>>>>>>>>>>>>>>>> KEY <<<<<<<<<<<<<<<<<<<<<<<<<<< > < > SKY/WX - SKY CONDITION/PRESENT WEATHER < > TMP - TEMPERATURE IN FAHRENHEIT < > DP - DEWPOINT IN FAHRENHEIT < > RH - RELATIVE HUMIDITY IN PERCENT < > WIND - DIRECTION AND SPEED IN MPH < > PRES - MEAN SEA LEVEL PRESSURE IN INCHES OF HG < > WCI - WIND CHILL INDEX < > VSB - VISIBILITY IN MILES < > HX - HEAT INDEX < > TC - TEMPERATURE IN CELSIUS < > VRB - VARIABLE WIND DIRECTION < > < >>>>>>>>>>>>>>>>>>>>>>>>>>>> KEY <<<<<<<<<<<<<<<<<<<<<<<<<<<

USA.gov is the U.S. government's official web portal to all federal, state and local government web resources and services.